Time,TemperatureF,DewpointF,PressureIn,WindDirection,WindDirectionDegrees,WindSpeedMPH,WindSpeedGustMPH,Humidity,HourlyPrecipIn,Conditions,Clouds,dailyrainin,SolarRadiationWatts/m^2,SoftwareType,DateUTC
2013-07-17 00:01:00,63.0,49.0,30.03,NNE,30,3.0,-999.0,61,-99.99,,,-99.99,0.000000,,2013-07-17 06:01:00,
2013-07-17 00:11:00,63.0,49.0,30.04,NNE,28,1.0,-999.0,60,-99.99,,,-99.99,0.000000,,2013-07-17 06:11:00,
2013-07-17 00:22:00,63.0,49.0,30.04,NNE,28,1.0,-999.0,60,-99.99,,,-99.99,0.000000,,2013-07-17 06:22:00,
2013-07-17 00:32:00,63.0,49.0,30.04,NE,36,2.0,-999.0,60,-99.99,,,-99.99,0.000000,,2013-07-17 06:32:00,
2013-07-17 00:43:00,63.0,49.0,30.04,NE,54,0.0,-999.0,60,-99.99,,,-99.99,0.000000,,2013-07-17 06:43:00,
2013-07-17 00:52:00,63.0,49.0,30.04,NE,54,0.0,-999.0,60,-99.99,,,-99.99,0.000000,,2013-07-17 06:52:00,
2013-07-17 01:01:00,63.0,49.0,30.04,NE,48,0.0,-999.0,60,-99.99,,,-99.99,0.000000,,2013-07-17 07:01:00,
2013-07-17 01:11:00,65.0,49.0,30.03,North,5,4.0,-999.0,57,-99.99,,,-99.99,0.000000,,2013-07-17 07:11:00,
2013-07-17 01:22:00,65.0,49.0,30.03,North,5,4.0,-999.0,57,-99.99,,,-99.99,0.000000,,2013-07-17 07:22:00,
2013-07-17 01:32:00,65.0,48.0,30.04,NE,56,1.0,-999.0,55,-99.99,,,-99.99,0.000000,,2013-07-17 07:32:00,
2013-07-17 01:42:00,66.0,49.0,30.04,ENE,75,0.0,-999.0,55,-99.99,,,-99.99,0.000000,,2013-07-17 07:42:00,
2013-07-17 01:52:00,66.0,49.0,30.04,ENE,75,0.0,-999.0,55,-99.99,,,-99.99,0.000000,,2013-07-17 07:52:00,
2013-07-17 02:01:00,67.0,49.0,30.04,East,96,0.0,-999.0,53,-99.99,,,-99.99,0.000000,,2013-07-17 08:01:00,
2013-07-17 02:11:00,65.0,48.0,30.04,SE,130,0.0,-999.0,55,-99.99,,,-99.99,0.000000,,2013-07-17 08:11:00,
2013-07-17 02:22:00,65.0,48.0,30.04,SE,130,0.0,-999.0,55,-99.99,,,-99.99,0.000000,,2013-07-17 08:22:00,
2013-07-17 02:32:00,65.0,48.0,30.04,SE,133,0.0,-999.0,55,-99.99,,,-99.99,0.000000,,2013-07-17 08:32:00,
2013-07-17 02:43:00,65.0,49.0,30.05,SE,131,0.0,-999.0,56,-99.99,,,-99.99,0.000000,,2013-07-17 08:43:00,
2013-07-17 02:53:00,65.0,49.0,30.05,SE,131,0.0,-999.0,56,-99.99,,,-99.99,0.000000,,2013-07-17 08:53:00,
2013-07-17 03:02:00,64.0,48.0,30.05,SE,131,0.0,-999.0,57,-99.99,,,-99.99,0.000000,,2013-07-17 09:02:00,
2013-07-17 03:12:00,65.0,49.0,30.05,SE,131,0.0,-999.0,57,-99.99,,,-99.99,0.000000,,2013-07-17 09:12:00,
2013-07-17 03:22:00,65.0,49.0,30.05,SE,131,0.0,-999.0,57,-99.99,,,-99.99,0.000000,,2013-07-17 09:22:00,
2013-07-17 03:32:00,64.0,49.0,30.05,SE,131,0.0,-999.0,58,-99.99,,,-99.99,0.000000,,2013-07-17 09:32:00,
2013-07-17 03:43:00,64.0,49.0,30.06,SE,140,0.0,-999.0,59,-99.99,,,-99.99,0.000000,,2013-07-17 09:43:00,
2013-07-17 03:52:00,64.0,49.0,30.06,SE,140,0.0,-999.0,59,-99.99,,,-99.99,0.000000,,2013-07-17 09:52:00,
2013-07-17 04:01:00,63.0,49.0,30.06,SSE,159,2.0,-999.0,60,-99.99,,,-99.99,0.000000,,2013-07-17 10:01:00,
2013-07-17 04:11:00,62.0,49.0,30.05,SE,130,1.0,-999.0,63,-99.99,,,-99.99,0.000000,,2013-07-17 10:11:00,
2013-07-17 04:22:00,62.0,49.0,30.05,SE,130,1.0,-999.0,63,-99.99,,,-99.99,0.000000,,2013-07-17 10:22:00,
2013-07-17 04:32:00,62.0,51.0,30.05,SE,130,0.0,-999.0,66,-99.99,,,-99.99,0.000000,,2013-07-17 10:32:00,
2013-07-17 04:43:00,62.0,51.0,30.05,SSE,156,0.0,-999.0,68,-99.99,,,-99.99,0.000000,,2013-07-17 10:43:00,
2013-07-17 04:52:00,62.0,51.0,30.05,SSE,156,0.0,-999.0,68,-99.99,,,-99.99,0.000000,,2013-07-17 10:52:00,
2013-07-17 05:01:00,62.0,52.0,30.05,SE,129,0.0,-999.0,71,-99.99,,,-99.99,0.000000,,2013-07-17 11:01:00,
2013-07-17 05:11:00,62.0,53.0,30.05,SE,129,0.0,-999.0,72,-99.99,,,-99.99,0.000000,,2013-07-17 11:11:00,
2013-07-17 05:22:00,62.0,53.0,30.05,SE,129,0.0,-999.0,72,-99.99,,,-99.99,0.000000,,2013-07-17 11:22:00,
2013-07-17 05:32:00,62.0,53.0,30.05,SE,132,0.0,-999.0,73,-99.99,,,-99.99,0.000000,,2013-07-17 11:32:00,
2013-07-17 05:42:00,61.0,52.0,30.05,SE,134,0.0,-999.0,72,-99.99,,,-99.99,0.000000,,2013-07-17 11:42:00,
2013-07-17 05:52:00,61.0,52.0,30.05,SE,134,0.0,-999.0,72,-99.99,,,-99.99,0.000000,,2013-07-17 11:52:00,
2013-07-17 06:01:00,61.0,51.0,30.05,SE,134,0.0,-999.0,69,-99.99,,,-99.99,0.000000,,2013-07-17 12:01:00,
2013-07-17 06:12:00,60.0,51.0,30.05,SE,134,0.0,-999.0,73,-99.99,,,-99.99,11.000000,,2013-07-17 12:12:00,
2013-07-17 06:22:00,60.0,51.0,30.05,SE,134,0.0,-999.0,73,-99.99,,,-99.99,11.000000,,2013-07-17 12:22:00,
2013-07-17 06:32:00,60.0,51.0,30.06,SE,144,0.0,-999.0,73,-99.99,,,-99.99,25.000000,,2013-07-17 12:32:00,
2013-07-17 06:42:00,60.0,51.0,30.07,NNW,333,0.0,-999.0,73,-99.99,,,-99.99,42.000000,,2013-07-17 12:42:00,
2013-07-17 06:53:00,60.0,51.0,30.07,NNW,333,0.0,-999.0,73,-99.99,,,-99.99,42.000000,,2013-07-17 12:53:00,
2013-07-17 07:01:00,60.0,52.0,30.07,North,351,1.0,-999.0,76,-99.99,,,-99.99,74.000000,,2013-07-17 13:01:00,
2013-07-17 07:12:00,61.0,53.0,30.07,North,355,0.0,-999.0,75,-99.99,,,-99.99,125.000000,,2013-07-17 13:12:00,
2013-07-17 07:22:00,61.0,53.0,30.07,North,355,0.0,-999.0,75,-99.99,,,-99.99,125.000000,,2013-07-17 13:22:00,
2013-07-17 07:32:00,63.0,54.0,30.07,North,355,0.0,-999.0,72,-99.99,,,-99.99,172.000000,,2013-07-17 13:32:00,
2013-07-17 07:43:00,64.0,54.0,30.07,North,360,0.0,-999.0,71,-99.99,,,-99.99,218.000000,,2013-07-17 13:43:00,
2013-07-17 07:52:00,64.0,54.0,30.07,North,360,0.0,-999.0,71,-99.99,,,-99.99,218.000000,,2013-07-17 13:52:00,
2013-07-17 08:02:00,65.0,55.0,30.08,NNE,13,1.0,-999.0,69,-99.99,,,-99.99,255.000000,,2013-07-17 14:02:00,
2013-07-17 08:11:00,66.0,55.0,30.07,North,5,0.0,-999.0,68,-99.99,,,-99.99,294.000000,,2013-07-17 14:11:00,
2013-07-17 08:22:00,66.0,55.0,30.07,North,5,0.0,-999.0,68,-99.99,,,-99.99,294.000000,,2013-07-17 14:22:00,
2013-07-17 08:32:00,67.0,56.0,30.07,NE,42,1.0,-999.0,67,-99.99,,,-99.99,338.000000,,2013-07-17 14:32:00,
2013-07-17 08:43:00,67.0,55.0,30.07,NE,44,0.0,-999.0,66,-99.99,,,-99.99,381.000000,,2013-07-17 14:43:00,
2013-07-17 08:52:00,67.0,55.0,30.07,NE,44,0.0,-999.0,66,-99.99,,,-99.99,381.000000,,2013-07-17 14:52:00,
2013-07-17 09:01:00,68.0,55.0,30.08,NE,46,0.0,-999.0,64,-99.99,,,-99.99,427.000000,,2013-07-17 15:01:00,
2013-07-17 09:12:00,68.0,55.0,30.08,SW,225,2.0,-999.0,64,-99.99,,,-99.99,471.000000,,2013-07-17 15:12:00,
2013-07-17 09:22:00,68.0,55.0,30.08,SW,225,2.0,-999.0,64,-99.99,,,-99.99,471.000000,,2013-07-17 15:22:00,
2013-07-17 09:32:00,69.0,57.0,30.08,SW,229,1.0,-999.0,65,-99.99,,,-99.99,513.000000,,2013-07-17 15:32:00,
2013-07-17 09:42:00,68.0,56.0,30.08,South,184,0.0,-999.0,65,-99.99,,,-99.99,559.000000,,2013-07-17 15:42:00,
2013-07-17 09:52:00,68.0,56.0,30.08,South,184,0.0,-999.0,65,-99.99,,,-99.99,559.000000,,2013-07-17 15:52:00,
2013-07-17 10:02:00,69.0,56.0,30.07,SE,136,0.0,-999.0,64,-99.99,,,-99.99,603.000000,,2013-07-17 16:02:00,
2013-07-17 10:11:00,70.0,57.0,30.06,South,174,0.0,-999.0,64,-99.99,,,-99.99,640.000000,,2013-07-17 16:11:00,
2013-07-17 10:21:00,70.0,57.0,30.06,South,174,0.0,-999.0,64,-99.99,,,-99.99,640.000000,,2013-07-17 16:21:00,
2013-07-17 10:33:00,71.0,55.0,30.06,SSE,152,0.0,-999.0,58,-99.99,,,-99.99,679.000000,,2013-07-17 16:33:00,
2013-07-17 10:42:00,72.0,55.0,30.05,SSE,162,0.0,-999.0,55,-99.99,,,-99.99,717.000000,,2013-07-17 16:42:00,
2013-07-17 10:52:00,72.0,55.0,30.05,SSE,162,0.0,-999.0,55,-99.99,,,-99.99,717.000000,,2013-07-17 16:52:00,
2013-07-17 11:01:00,73.0,55.0,30.05,South,178,1.0,-999.0,54,-99.99,,,-99.99,747.000000,,2013-07-17 17:01:00,
2013-07-17 11:11:00,74.0,56.0,30.05,SE,144,0.0,-999.0,53,-99.99,,,-99.99,779.000000,,2013-07-17 17:11:00,
2013-07-17 11:21:00,74.0,56.0,30.05,SE,144,0.0,-999.0,53,-99.99,,,-99.99,779.000000,,2013-07-17 17:21:00,
2013-07-17 11:32:00,75.0,57.0,30.05,SSW,196,4.0,-999.0,53,-99.99,,,-99.99,805.000000,,2013-07-17 17:32:00,
2013-07-17 11:43:00,76.0,57.0,30.04,SSE,161,0.0,-999.0,52,-99.99,,,-99.99,831.000000,,2013-07-17 17:43:00,
2013-07-17 11:52:00,76.0,57.0,30.04,SSE,161,0.0,-999.0,52,-99.99,,,-99.99,831.000000,,2013-07-17 17:52:00,
2013-07-17 12:01:00,77.0,57.0,30.04,SSW,213,3.0,-999.0,50,-99.99,,,-99.99,858.000000,,2013-07-17 18:01:00,
2013-07-17 12:11:00,78.0,55.0,30.04,WSW,238,1.0,-999.0,45,-99.99,,,-99.99,742.000000,,2013-07-17 18:11:00,
2013-07-17 12:22:00,78.0,55.0,30.04,WSW,238,1.0,-999.0,45,-99.99,,,-99.99,742.000000,,2013-07-17 18:22:00,
2013-07-17 12:32:00,79.0,56.0,30.03,South,188,1.0,-999.0,46,-99.99,,,-99.99,889.000000,,2013-07-17 18:32:00,
2013-07-17 12:43:00,79.0,53.0,30.03,SW,219,1.0,-999.0,41,-99.99,,,-99.99,900.000000,,2013-07-17 18:43:00,
2013-07-17 12:52:00,79.0,53.0,30.03,SW,219,1.0,-999.0,41,-99.99,,,-99.99,900.000000,,2013-07-17 18:52:00,
2013-07-17 13:01:00,80.0,53.0,30.03,SSW,198,1.0,-999.0,39,-99.99,,,-99.99,912.000000,,2013-07-17 19:01:00,
2013-07-17 13:11:00,80.0,51.0,30.02,SW,221,1.0,-999.0,37,-99.99,,,-99.99,919.000000,,2013-07-17 19:11:00,
2013-07-17 13:22:00,80.0,51.0,30.02,SW,221,1.0,-999.0,37,-99.99,,,-99.99,919.000000,,2013-07-17 19:22:00,
2013-07-17 13:32:00,80.0,51.0,30.02,SW,216,0.0,-999.0,37,-99.99,,,-99.99,926.000000,,2013-07-17 19:32:00,
2013-07-17 13:43:00,81.0,52.0,30.02,SW,215,1.0,-999.0,36,-99.99,,,-99.99,921.000000,,2013-07-17 19:43:00,
2013-07-17 13:53:00,81.0,52.0,30.02,SW,215,1.0,-999.0,36,-99.99,,,-99.99,921.000000,,2013-07-17 19:53:00,
2013-07-17 14:01:00,82.0,52.0,30.01,SSE,164,1.0,-999.0,35,-99.99,,,-99.99,918.000000,,2013-07-17 20:01:00,
2013-07-17 14:11:00,83.0,52.0,30.01,South,177,2.0,-999.0,34,-99.99,,,-99.99,912.000000,,2013-07-17 20:11:00,
2013-07-17 14:22:00,83.0,52.0,30.01,South,177,2.0,-999.0,34,-99.99,,,-99.99,912.000000,,2013-07-17 20:22:00,
2013-07-17 14:33:00,83.0,52.0,30.01,WSW,246,1.0,-999.0,34,-99.99,,,-99.99,552.000000,,2013-07-17 20:33:00,
2013-07-17 14:43:00,84.0,51.0,30.00,SSW,201,1.0,-999.0,32,-99.99,,,-99.99,912.000000,,2013-07-17 20:43:00,
2013-07-17 14:52:00,84.0,51.0,30.00,SSW,201,1.0,-999.0,32,-99.99,,,-99.99,912.000000,,2013-07-17 20:52:00,
2013-07-17 15:01:00,84.0,52.0,30.00,NE,55,0.0,-999.0,33,-99.99,,,-99.99,,,2013-07-17 21:01:00,
2013-07-17 15:12:00,86.0,54.0,29.99,SW,220,0.0,-999.0,33,-99.99,,,-99.99,847.000000,,2013-07-17 21:12:00,
2013-07-17 15:22:00,86.0,54.0,29.99,SW,220,0.0,-999.0,33,-99.99,,,-99.99,847.000000,,2013-07-17 21:22:00,
2013-07-17 15:32:00,87.0,50.0,29.99,NW,322,0.0,-999.0,28,-99.99,,,-99.99,837.000000,,2013-07-17 21:32:00,
2013-07-17 15:42:00,87.0,50.0,29.99,NW,322,0.0,-999.0,28,-99.99,,,-99.99,837.000000,,2013-07-17 21:42:00,
2013-07-17 15:52:00,89.0,52.0,29.98,WNW,285,2.0,-999.0,28,-99.99,,,-99.99,816.000000,,2013-07-17 21:52:00,
2013-07-17 16:01:00,89.0,53.0,29.98,North,5,2.0,-999.0,29,-99.99,,,-99.99,782.000000,,2013-07-17 22:01:00,
2013-07-17 16:11:00,89.0,53.0,29.98,North,5,2.0,-999.0,29,-99.99,,,-99.99,782.000000,,2013-07-17 22:11:00,
2013-07-17 16:21:00,88.0,50.0,29.97,East,80,2.0,-999.0,27,-99.99,,,-99.99,740.000000,,2013-07-17 22:21:00,
2013-07-17 16:32:00,88.0,51.0,29.96,NNW,338,2.0,-999.0,28,-99.99,,,-99.99,729.000000,,2013-07-17 22:32:00,
2013-07-17 16:43:00,88.0,51.0,29.96,NNW,338,2.0,-999.0,28,-99.99,,,-99.99,729.000000,,2013-07-17 22:43:00,
2013-07-17 16:53:00,88.0,51.0,29.96,North,349,1.0,-999.0,28,-99.99,,,-99.99,687.000000,,2013-07-17 22:53:00,
2013-07-17 17:01:00,89.0,47.0,29.96,NW,313,3.0,-999.0,24,-99.99,,,-99.99,668.000000,,2013-07-17 23:01:00,
2013-07-17 17:11:00,89.0,47.0,29.96,NW,313,3.0,-999.0,24,-99.99,,,-99.99,668.000000,,2013-07-17 23:11:00,
2013-07-17 17:22:00,89.0,49.0,29.95,WNW,300,3.0,-999.0,25,-99.99,,,-99.99,636.000000,,2013-07-17 23:22:00,
2013-07-17 17:32:00,90.0,48.0,29.94,NNW,333,3.0,-999.0,24,-99.99,,,-99.99,568.000000,,2013-07-17 23:32:00,
2013-07-17 17:43:00,90.0,48.0,29.94,NNW,333,3.0,-999.0,24,-99.99,,,-99.99,568.000000,,2013-07-17 23:43:00,
2013-07-17 17:52:00,89.0,47.0,29.93,NE,46,3.0,-999.0,24,-99.99,,,-99.99,529.000000,,2013-07-17 23:52:00,
2013-07-17 18:01:00,89.0,47.0,29.93,NE,44,4.0,-999.0,24,-99.99,,,-99.99,480.000000,,2013-07-18 00:01:00,
2013-07-17 18:11:00,89.0,47.0,29.93,NE,44,4.0,-999.0,24,-99.99,,,-99.99,480.000000,,2013-07-18 00:11:00,
2013-07-17 18:22:00,88.0,47.0,29.93,ENE,59,8.0,-999.0,24,-99.99,,,-99.99,403.000000,,2013-07-18 00:22:00,
2013-07-17 18:33:00,88.0,48.0,29.92,NE,53,4.0,-999.0,25,-99.99,,,-99.99,302.000000,,2013-07-18 00:33:00,
2013-07-17 18:43:00,88.0,48.0,29.92,NE,53,4.0,-999.0,25,-99.99,,,-99.99,302.000000,,2013-07-18 00:43:00,
2013-07-17 18:52:00,87.0,46.0,29.92,NE,45,4.0,-999.0,24,-99.99,,,-99.99,230.000000,,2013-07-18 00:52:00,
2013-07-17 19:01:00,87.0,47.0,29.92,ENE,61,6.0,-999.0,25,-99.99,,,-99.99,151.000000,,2013-07-18 01:01:00,
2013-07-17 19:11:00,87.0,47.0,29.92,ENE,61,6.0,-999.0,25,-99.99,,,-99.99,151.000000,,2013-07-18 01:11:00,
2013-07-17 19:22:00,86.0,49.0,29.93,NE,53,10.0,-999.0,28,-99.99,,,-99.99,149.000000,,2013-07-18 01:22:00,
2013-07-17 19:32:00,86.0,48.0,29.93,NE,46,9.0,-999.0,27,-99.99,,,-99.99,109.000000,,2013-07-18 01:32:00,
2013-07-17 19:42:00,86.0,48.0,29.93,NE,46,9.0,-999.0,27,-99.99,,,-99.99,109.000000,,2013-07-18 01:42:00,
2013-07-17 19:53:00,86.0,48.0,29.93,NE,56,6.0,-999.0,27,-99.99,,,-99.99,83.000000,,2013-07-18 01:53:00,
2013-07-17 20:01:00,86.0,49.0,29.92,NE,43,8.0,-999.0,28,-99.99,,,-99.99,83.000000,,2013-07-18 02:01:00,
2013-07-17 20:11:00,86.0,49.0,29.92,NE,43,8.0,-999.0,28,-99.99,,,-99.99,83.000000,,2013-07-18 02:11:00,
2013-07-17 20:22:00,85.0,49.0,29.92,ENE,60,7.0,-999.0,29,-99.99,,,-99.99,54.000000,,2013-07-18 02:22:00,
2013-07-17 20:32:00,84.0,49.0,29.93,NE,46,6.0,-999.0,30,-99.99,,,-99.99,19.000000,,2013-07-18 02:32:00,
2013-07-17 20:42:00,84.0,49.0,29.93,NE,46,6.0,-999.0,30,-99.99,,,-99.99,19.000000,,2013-07-18 02:42:00,
2013-07-17 20:52:00,83.0,49.0,29.93,NE,52,4.0,-999.0,31,-99.99,,,-99.99,7.000000,,2013-07-18 02:52:00,
2013-07-17 21:01:00,82.0,48.0,29.93,NE,52,4.0,-999.0,31,-99.99,,,-99.99,0.000000,,2013-07-18 03:01:00,
2013-07-17 21:11:00,82.0,48.0,29.93,NE,52,4.0,-999.0,31,-99.99,,,-99.99,0.000000,,2013-07-18 03:11:00,
2013-07-17 21:22:00,81.0,48.0,29.93,NE,56,1.0,-999.0,32,-99.99,,,-99.99,0.000000,,2013-07-18 03:22:00,
2013-07-17 21:32:00,81.0,47.0,29.93,ENE,57,2.0,-999.0,30,-99.99,,,-99.99,0.000000,,2013-07-18 03:32:00,
2013-07-17 21:43:00,81.0,47.0,29.93,ENE,57,2.0,-999.0,30,-99.99,,,-99.99,0.000000,,2013-07-18 03:43:00,
2013-07-17 21:52:00,81.0,46.0,29.94,NE,40,2.0,-999.0,29,-99.99,,,-99.99,0.000000,,2013-07-18 03:52:00,
2013-07-17 22:02:00,80.0,49.0,29.95,SW,229,7.0,-999.0,34,-99.99,,,-99.99,0.000000,,2013-07-18 04:02:00,
2013-07-17 22:12:00,80.0,49.0,29.95,SW,229,7.0,-999.0,34,-99.99,,,-99.99,0.000000,,2013-07-18 04:12:00,
2013-07-17 22:22:00,80.0,50.0,29.96,SW,234,9.0,-999.0,35,-99.99,,,-99.99,0.000000,,2013-07-18 04:22:00,
2013-07-17 22:32:00,78.0,48.0,29.97,WSW,243,2.0,-999.0,35,-99.99,,,-99.99,0.000000,,2013-07-18 04:32:00,
2013-07-17 22:43:00,78.0,48.0,29.97,WSW,243,2.0,-999.0,35,-99.99,,,-99.99,0.000000,,2013-07-18 04:43:00,
2013-07-17 22:52:00,78.0,48.0,29.97,WSW,245,0.0,-999.0,35,-99.99,,,-99.99,0.000000,,2013-07-18 04:52:00,
2013-07-17 23:02:00,77.0,47.0,29.97,WSW,245,0.0,-999.0,35,-99.99,,,-99.99,0.000000,,2013-07-18 05:02:00,
2013-07-17 23:11:00,77.0,47.0,29.97,WSW,245,0.0,-999.0,35,-99.99,,,-99.99,0.000000,,2013-07-18 05:11:00,
2013-07-17 23:22:00,77.0,48.0,29.97,West,269,0.0,-999.0,36,-99.99,,,-99.99,0.000000,,2013-07-18 05:22:00,
2013-07-17 23:32:00,77.0,47.0,29.98,WNW,286,2.0,-999.0,35,-99.99,,,-99.99,0.000000,,2013-07-18 05:32:00,
2013-07-17 23:42:00,77.0,47.0,29.98,WNW,286,2.0,-999.0,35,-99.99,,,-99.99,0.000000,,2013-07-18 05:42:00,
2013-07-17 23:52:00,77.0,47.0,29.99,WSW,252,1.0,-999.0,35,-99.99,,,-99.99,0.000000,,2013-07-18 05:52:00,